[[{"header":{"parameterUnit":"m.s-1","parameterCategory":1,"la1":30.2991,"la2":30.254,"lo1":-89.0895,"lo2":-89.0444,"dy":0.0017,"dx":0.0017,"nx":28,"ny":28,"refTime":"2024-07-18T03:00:00:Z","depth":0,"parameterNumber":2,"parameterNumberName":"U-component_of_WINDS"},"data":[0,0,0,0,0,0,0,0,0,0,0,0,0,0,0,0,0,0,0,0,0,0,0,0,0,0,0,0,0,0,0,0,0,0,0,0,0,0,0,0,0,0,0,0,0,0,0,0,0,0,0,0,0,0,0,0,0,0,-0.6095,-0.6096,0,-0.6274,-0.6276,-0.6278,-0.6297,-0.6296,-0.6294,-0.6292,-0.6476,-0.6483,-0.6489,0,0,0,0,0,0,0,0,0,0,0,0,0,-0.5768,-0.5774,-0.6094,-0.6097,-0.6099,-0.6274,-0.6276,-0.6279,-0.6298,-0.6296,-0.6293,-0.6291,-0.6474,-0.6482,-0.649,0,0,0,0,0,0,0,0,0,0,0,0,0,-0.5925,-0.5776,-0.6094,-0.6129,-0.6134,-0.6273,-0.6276,-0.6279,-0.6298,-0.6296,-0.6293,-0.629,-0.6472,-0.6481,-0.6491,-0.6607,0,0,-0.6521,-0.6526,0,0,0,0,0,0,0,0,-0.5916,-0.5937,-0.6122,-0.6127,-0.6133,-0.6261,-0.6229,-0.6389,-0.6299,-0.6236,-0.6292,-0.6289,-0.6407,-0.6422,-0.6462,-0.6615,-0.6623,-0.6522,-0.6528,-0.6532,-0.6535,0,0,0,0,0,0,0,-0.5905,-0.5929,-0.6165,-0.6125,-0.6131,-0.6136,-0.6156,-0.6259,-0.6335,-0.6241,-0.6243,-0.6264,-0.6409,-0.6452,-0.6466,-0.6626,-0.6522,-0.6531,-0.6537,-0.6541,-0.6884,-0.6887,0,0,0,0,0,0,-0.5887,-0.592,-0.616,-0.6171,-0.6015,-0.6144,-0.6166,-0.6222,-0.6334,-0.6348,-0.6266,-0.6264,-0.6436,-0.6454,-0.6473,-0.6616,-0.6532,-0.6542,-0.6547,-0.6881,-0.6885,-0.6888,0,0,0,0,0,0,-0.588,-0.5909,-0.6153,-0.6046,-0.6077,-0.6153,-0.6216,-0.6227,-0.627,-0.6352,-0.6366,-0.6296,-0.6435,-0.6459,-0.6573,-0.6623,-0.6546,-0.6555,-0.6877,-0.6882,-0.6886,-0.6904,0,0,0,0,0,0,-0.5871,-0.5906,-0.5951,-0.6047,-0.6083,-0.6251,-0.6219,-0.6233,-0.6287,-0.6286,-0.6384,-0.6397,-0.6435,-0.6558,-0.6583,-0.6635,-0.6563,-0.6873,-0.6879,-0.6885,-0.69,-0.6909,-0.6917,0,0,0,0,0,-0.5859,-0.5949,-0.5953,-0.5982,-0.6141,-0.6253,-0.6274,-0.6315,-0.6291,-0.6337,-0.639,-0.6394,-0.6613,-0.657,-0.6598,-0.6654,-0.687,-0.6877,-0.6884,-0.6896,-0.6907,-0.6917,0,0,0,0,0,0,-0.5858,-0.5962,-0.5968,-0.6092,-0.6163,-0.6256,-0.6316,-0.6326,-0.6406,-0.6402,-0.6449,-0.6471,-0.6584,-0.663,-0.658,-0.6772,-0.6739,-0.6752,-0.6738,-0.675,-0.6758,-0.6746,-0.6571,0,0,0,0,0,-0.5871,-0.5954,-0.6041,-0.6141,-0.6177,-0.624,-0.6291,-0.6316,-0.6392,-0.6423,-0.6484,-0.6558,-0.6643,-0.6698,-0.6781,-0.6905,-0.6927,-0.6957,-0.6966,-0.6973,-0.6984,-0.7053,-0.7068,-0.6912,-0.6912,-0.6911,0,0,-0.5901,-0.5969,-0.6018,-0.6143,-0.6201,-0.6286,-0.6266,-0.6356,-0.642,-0.6436,-0.6549,-0.6596,-0.6681,-0.6801,-0.6857,-0.6843,-0.7032,-0.6982,-0.6986,-0.6995,-0.7062,-0.7077,-0.709,-0.6916,-0.6916,-0.6915,0,0,-0.6,-0.6058,-0.6149,-0.6208,-0.6296,-0.6338,-0.6359,-0.6451,-0.6483,-0.6596,-0.661,-0.6686,-0.6832,-0.6892,-0.6942,-0.7061,-0.7069,-0.7086,-0.7133,-0.72,-0.7212,-0.7224,-0.7267,-0.7282,-0.7097,-0.7097,-0.7097,0,-0.6026,-0.6154,-0.6194,-0.6285,-0.6339,-0.6357,-0.6449,-0.6504,-0.6616,-0.6653,-0.6635,-0.6818,-0.6877,-0.7012,-0.7041,-0.708,-0.7106,-0.7077,-0.7207,-0.7219,-0.723,-0.7272,-0.7288,-0.7099,-0.7099,-0.7098,-0.7098,0,-0.6183,-0.6271,-0.6333,-0.644,-0.6502,-0.6592,-0.6646,-0.6703,-0.6722,-0.6764,-0.6879,-0.695,-0.7048,-0.7081,-0.71,-0.7218,-0.7207,-0.7198,-0.7166,-0.7246,-0.7287,-0.7303,-0.7101,-0.7101,-0.71,-0.71,0,0,-0.6288,-0.6414,-0.6437,-0.6485,-0.6584,-0.6653,-0.6744,-0.6839,-0.6888,-0.6963,-0.7041,-0.7163,-0.7155,-0.7211,-0.7237,-0.7296,-0.7387,-0.7279,-0.7282,-0.7298,-0.7522,-0.753,-0.7548,-0.7391,-0.7394,-0.7397,-0.7515,0,-0.6399,-0.6562,-0.6599,-0.674,-0.6822,-0.6839,-0.6918,-0.6987,-0.7029,-0.7105,-0.7151,-0.7237,-0.7219,-0.7253,-0.7312,-0.7363,-0.7433,-0.7355,-0.7465,-0.7469,-0.7446,-0.7569,-0.7578,-0.7687,-0.7531,-0.7534,-0.7536,0,-0.6551,-0.6629,-0.6777,-0.6864,-0.6901,-0.6971,-0.7062,-0.7133,-0.7211,-0.7237,-0.73,-0.732,-0.7415,-0.7376,-0.7508,-0.7455,-0.7501,-0.7533,-0.7538,-0.7552,-0.7509,-0.7588,-0.7722,-0.7739,-0.7561,-0.7559,-0.7557,0,-0.6614,-0.6757,-0.6864,-0.6905,-0.7009,-0.7058,-0.7104,-0.7179,-0.7234,-0.7312,-0.7348,-0.7436,-0.7485,-0.7552,-0.7595,-0.7563,-0.7724,-0.7689,-0.7749,-0.7749,-0.7785,-0.7783,-0.793,-0.7811,-0.7811,-0.781,-0.781,0,-0.6736,-0.6826,-0.6894,-0.6961,-0.7062,-0.7104,-0.7203,-0.7249,-0.7315,-0.7391,-0.741,-0.748,-0.7531,-0.7609,-0.7642,-0.7747,-0.7768,-0.7792,-0.7801,-0.7792,-0.779,-0.7826,-0.782,-0.7815,-0.7814,-0.7813,-0.7812,0,-0.6825,-0.6874,-0.6993,-0.7081,-0.7105,-0.7176,-0.7252,-0.7316,-0.7357,-0.7452,-0.7477,-0.7542,-0.7634,-0.7682,-0.7797,-0.782,-0.7938,-0.794,-0.7912,-0.7916,-0.7974,-0.7968,-0.8152,-0.8179,-0.8039,-0.804,-0.8041,0,-0.6901,-0.6971,-0.7066,-0.7118,-0.7164,-0.7247,-0.7303,-0.7346,-0.7403,-0.7496,-0.755,-0.7643,-0.772,-0.7865,-0.7922,-0.801,-0.8017,-0.8075,-0.803,-0.8019,-0.802,-0.8016,-0.8024,-0.8084,-0.8085,-0.8086,-0.8087,0,-0.703,-0.705,-0.713,-0.7218,-0.7284,-0.7356,-0.7426,-0.7467,-0.7522,-0.7585,-0.7679,-0.7738,-0.7855,-0.7947,-0.8039,-0.8085,-0.8096,-0.81,-0.8119,-0.8112,-0.8093,-0.8106,-0.7935,-0.8096,-0.8095,-0.8095,-0.8094,-0.8094,-0.7117,-0.718,-0.7256,-0.7344,-0.7402,-0.7467,-0.7532,-0.7581,-0.766,-0.7759,-0.7779,-0.7878,-0.7953,-0.8078,-0.8127,-0.8205,-0.8194,-0.822,-0.8228,-0.8234,-0.8238,-0.8078,-0.8222,-0.8221,-0.8221,-0.8221,-0.8221,0,-0.7248,-0.7298,-0.7378,-0.7476,-0.7545,-0.7547,-0.7625,-0.7683,-0.7771,-0.784,-0.7914,-0.8022,-0.8111,-0.8174,-0.8265,-0.8316,-0.8323,-0.8338,-0.8336,-0.8347,-0.8242,-0.8218,-0.8331,-0.8331,-0.8331,-0.8331,-0.8331,-0.8331,-0.7325,-0.7433,-0.7462,-0.7597,-0.7646,-0.7744,-0.7789,-0.7849,-0.7904,-0.8024,-0.8098,-0.8138,-0.8205,-0.83,-0.8382,-0.8398,-0.8431,-0.8447,-0.8464,-0.8366,-0.8354,-0.8343,-0.8321,-0.8453,-0.8454,-0.8562,-0.8563,-0.8564]},{"header":{"parameterUnit":"m.s-1","parameterCategory":1,"la1":30.2991,"la2":30.254,"lo1":-89.0895,"lo2":-89.0444,"dy":0.0017,"dx":0.0017,"nx":28,"ny":28,"refTime":"2024-07-18T03:00:00:Z","depth":0,"parameterNumber":3,"parameterNumberName":"V-component_of_WINDS"},"data":[0,0,0,0,0,0,0,0,0,0,0,0,0,0,0,0,0,0,0,0,0,0,0,0,0,0,0,0,0,0,0,0,0,0,0,0,0,0,0,0,0,0,0,0,0,0,0,0,0,0,0,0,0,0,0,0,0,0,2.5732,2.5732,0,2.5726,2.5726,2.5726,2.5705,2.5704,2.5704,2.5703,2.5697,2.5697,2.5697,0,0,0,0,0,0,0,0,0,0,0,0,0,2.5723,2.5723,2.5732,2.5732,2.5732,2.5726,2.5726,2.5726,2.5705,2.5704,2.5704,2.5703,2.5697,2.5697,2.5697,0,0,0,0,0,0,0,0,0,0,0,0,0,2.5723,2.5724,2.5732,2.572,2.5719,2.5726,2.5726,2.5726,2.5705,2.5704,2.5703,2.5703,2.5696,2.5697,2.5697,2.5714,0,0,2.5699,2.5699,0,0,0,0,0,0,0,0,2.5723,2.5723,2.5722,2.5721,2.572,2.5715,2.572,2.5722,2.5705,2.571,2.5703,2.5702,2.5703,2.5703,2.5704,2.5714,2.5714,2.5699,2.5699,2.5699,2.5699,0,0,0,0,0,0,0,2.5723,2.5724,2.5729,2.5722,2.5721,2.5715,2.5714,2.5721,2.5711,2.571,2.5708,2.5708,2.5703,2.5703,2.5703,2.5714,2.5699,2.5699,2.5699,2.5699,2.5736,2.5736,0,0,0,0,0,0,2.5725,2.5724,2.573,2.5729,2.572,2.5716,2.5715,2.5718,2.5711,2.5709,2.5709,2.5707,2.5703,2.5703,2.5703,2.5721,2.5699,2.5699,2.57,2.5735,2.5736,2.5736,0,0,0,0,0,0,2.5725,2.5726,2.573,2.5726,2.5726,2.5717,2.572,2.5718,2.5718,2.571,2.5708,2.5711,2.5702,2.5702,2.5711,2.572,2.57,2.57,2.5734,2.5735,2.5736,2.5758,0,0,0,0,0,0,2.5725,2.5726,2.5733,2.5726,2.5726,2.5739,2.572,2.5718,2.5719,2.5717,2.5712,2.571,2.5702,2.5711,2.5712,2.5721,2.57,2.5733,2.5735,2.5736,2.5756,2.5759,2.5762,0,0,0,0,0,2.5724,2.5739,2.5733,2.5734,2.5735,2.5739,2.5739,2.573,2.572,2.5726,2.5721,2.571,2.572,2.5712,2.5713,2.5722,2.5732,2.5734,2.5736,2.5755,2.5759,2.5762,0,0,0,0,0,0,2.5747,2.5738,2.5731,2.5744,2.5743,2.5736,2.5743,2.5734,2.5735,2.5733,2.5721,2.572,2.573,2.5727,2.5719,2.5737,2.5724,2.5726,2.5738,2.5742,2.5745,2.5745,2.5701,0,0,0,0,0,2.5753,2.5758,2.575,2.5762,2.5762,2.5753,2.5754,2.5747,2.5745,2.5744,2.5739,2.5737,2.5739,2.5741,2.5742,2.5756,2.5754,2.5763,2.5766,2.5768,2.5769,2.5775,2.5778,2.5742,2.5742,2.5742,0,0,2.5766,2.5762,2.5766,2.5767,2.5764,2.5769,2.5752,2.5758,2.5761,2.5745,2.5752,2.5748,2.5745,2.5756,2.576,2.5754,2.5779,2.577,2.5772,2.5772,2.5777,2.578,2.5783,2.5743,2.5743,2.5742,0,0,2.5792,2.579,2.5799,2.5797,2.5794,2.5788,2.579,2.5784,2.5781,2.5789,2.5776,2.5779,2.5784,2.5781,2.5781,2.5805,2.5795,2.5806,2.5821,2.5827,2.5829,2.5832,2.5839,2.5842,2.5808,2.5808,2.5808,0,2.5809,2.5815,2.5805,2.5811,2.5811,2.5797,2.5805,2.5804,2.5802,2.5802,2.5794,2.5799,2.5796,2.5805,2.5811,2.5811,2.5813,2.5806,2.583,2.5832,2.5834,2.5841,2.5844,2.5809,2.5809,2.5809,2.5809,0,2.5835,2.5839,2.5847,2.5844,2.5846,2.5853,2.5843,2.5846,2.5838,2.5833,2.584,2.5836,2.5835,2.5838,2.5831,2.5845,2.5841,2.5832,2.5819,2.5839,2.5845,2.5848,2.5811,2.581,2.581,2.581,0,0,2.5873,2.5865,2.5868,2.5866,2.5861,2.5864,2.5871,2.587,2.5872,2.5871,2.5875,2.5879,2.587,2.5869,2.5862,2.5867,2.5884,2.5857,2.5857,2.5861,2.5898,2.5903,2.5907,2.5878,2.5879,2.5879,2.5898,0,2.5896,2.5906,2.5898,2.5909,2.5912,2.5899,2.5904,2.5901,2.5896,2.5898,2.5892,2.5894,2.5884,2.5883,2.5887,2.5881,2.5891,2.588,2.588,2.588,2.588,2.591,2.5916,2.5934,2.59,2.59,2.5901,0,2.5924,2.5924,2.5936,2.5929,2.593,2.5935,2.5933,2.5935,2.5931,2.5927,2.5926,2.5917,2.5922,2.591,2.5916,2.5909,2.5908,2.5905,2.5906,2.5904,2.5891,2.5907,2.5939,2.5941,2.5905,2.5904,2.5904,0,2.5949,2.5951,2.5958,2.5957,2.595,2.5953,2.5951,2.5946,2.5946,2.5945,2.5945,2.5944,2.5944,2.5943,2.5934,2.5927,2.594,2.5928,2.5936,2.5936,2.5938,2.5938,2.5969,2.5941,2.5941,2.5941,2.5941,0,2.5974,2.5981,2.5969,2.5973,2.598,2.597,2.5977,2.5973,2.5969,2.5972,2.5961,2.5963,2.5952,2.5953,2.5946,2.5951,2.5951,2.5947,2.5945,2.5947,2.5947,2.5945,2.5943,2.5942,2.5942,2.5941,2.5941,0,2.6002,2.5994,2.6001,2.5993,2.5991,2.5997,2.599,2.5993,2.5988,2.5991,2.5991,2.5982,2.5982,2.5974,2.5973,2.5968,2.5975,2.5972,2.5976,2.5975,2.5982,2.5981,2.6012,2.6015,2.5987,2.5987,2.5987,0,2.6018,2.6023,2.6016,2.6017,2.6014,2.6016,2.6016,2.6006,2.6006,2.6002,2.6005,2.6005,2.6004,2.6005,2.5998,2.5997,2.5993,2.6004,2.5992,2.5994,2.5991,2.599,2.5989,2.6005,2.6006,2.6006,2.6006,0,2.6046,2.6042,2.6042,2.6041,2.6041,2.6039,2.6037,2.6038,2.6027,2.6028,2.6029,2.6028,2.6027,2.6026,2.6023,2.602,2.6011,2.601,2.6011,2.6013,2.6015,2.6012,2.5981,2.6009,2.6009,2.6009,2.6008,2.6008,2.6067,2.607,2.6066,2.6066,2.6063,2.6061,2.6063,2.6058,2.6058,2.6056,2.605,2.6051,2.6047,2.6042,2.604,2.604,2.6034,2.6037,2.6037,2.6038,2.6038,2.6016,2.604,2.604,2.6039,2.6039,2.6039,0,2.6093,2.6089,2.609,2.6087,2.6087,2.6079,2.6076,2.6076,2.6077,2.6074,2.6073,2.6073,2.6072,2.6065,2.6063,2.6065,2.6061,2.6065,2.6063,2.6063,2.6044,2.6042,2.6068,2.6068,2.6068,2.6068,2.6068,2.6068,2.6106,2.6111,2.6106,2.6109,2.6105,2.6106,2.6105,2.6102,2.6099,2.61,2.6099,2.6095,2.6089,2.6087,2.6086,2.6084,2.6083,2.6088,2.6084,2.6067,2.6064,2.6061,2.6059,2.6088,2.6088,2.6102,2.6102,2.6103]}]]